Other Public Products
Issued by NWS Grand Forks, ND

Home | Current Version | Previous Version | Graphics & Text | Print | Product List | Glossary On
Versions: 1 2 3 4 5 6 7 8 9 10 11 12 13 14 15 16 17 18 19 20 21 22 23 24 25 26 27 28 29 30 31 32 33 34 35 36 37 38 39 40 41 42 43 44 45 46 47 48 49 50
228
FPUS83 KFGF 070731
OPUFGF
PRAIRIE TO PINES WEATHER ROUNDUP
NATIONAL WEATHER SERVICE EASTERN NORTH DAKOTA/GRAND FORKS ND
100 AM CST WED DEC 07 2016

 **SATELLITE DATA USED TO AUGMENT SKY COVER AT AUTOMATED STATIONS**
 *****  WEATHER ACROSS EASTERN NORTH DAKOTA  *****

CITY           SKY/WX    TMP DP  RH WIND       PRES   REMARKS
GRAND FORKS    SNOW      17  12  80 W30G40    29.76R VSB 1/2 WCI  -3
GRAND FORKS AF LGT SNOW  14  10  85 NW22G37   29.78R WCI  -4
GRAND CITY NWS   N/A     16 N/A N/A NW30        N/A  WCI  -4
BUXTON           N/A     35  35  99 W26G39      N/A  WCI  23
DEVILS LAKE    LGT SNOW   9   5  85 W35       29.84R FOG     WCI -15
FARGO          LGT SNOW  14   8  77 W23G36    29.84R WCI  -5
WAHPETON ARPT  CLOUDY    14   9  79 W25       29.90R WCI  -5
$$

 *****  WEATHER ACROSS CENTRAL AND WESTERN NORTH DAKOTA  *****

CITY           SKY/WX    TMP DP  RH WIND       PRES   REMARKS
JAMESTOWN      CLOUDY     8   4  83 NW26G39   29.91R BLWGSNOWWCI -14
BISMARCK       CLOUDY     5   0  79 W23G31    30.08S WCI -17
MINOT          LGT SNOW   7   3  84 W33G41    30.01R VSB 3/4 WCI -17
MINOT AFB      SNOW       7   1  78 NW40G47   29.99S VSB 1/4 WCI -19
GARRISON         N/A      5   0  79 NW26G38   30.04R WCI -18
WILLISTON      CLOUDY     4  -3  73 NW13      30.20R WCI -13
DICKINSON      CLOUDY    -1  -7  75 NW29      30.09R HAZE    WCI -27
HETTINGER      MOCLDY     0  -7  72 NW28G36   30.11R WCI -25
$$

 *****  OTHER OBSERVATIONS NORTHEAST NORTH DAKOTA  *****

CITY           SKY/WX    TMP DP  RH WIND       PRES   REMARKS
WALHALLA       LGT SNOW  16  16 100 NW24G38   29.75R WCI  -3
LANGDON        SNOW      12  10  92 NW37G46   29.74R VSB 1/4 WCI -11
CAVALIER         N/A     18  14  86 NW26G37   29.73R FOG     WCI  -1
GRAFTON        FAIR      18  14  86 W30G38    29.76R WCI  -2
CANDO          CLOUDY     9   7  92 NW26G37   29.88R WCI -13
FORT TOTTEN      N/A     10   8  93 NW16      29.95S WCI  -7
ROLLA          LGT SNOW   9   9 100 NW31G39   29.84R VSB 3/4 WCI -14
RUGBY            N/A      7   5  92 NW31G37   29.93R FOG     WCI -17
 ***** THE ABOVE OBSERVATIONS ARE NON NWS ARE NOT QUALITY
        CONTROLLED AND MAY MIS-REPORT RAIN FOR SNOW...
$$

 *****  OTHER OBSERVATIONS SOUTHEAST NORTH DAKOTA *****

CITY           SKY/WX    TMP DP  RH WIND       PRES   REMARKS
COOPERSTOWN    LGT SNOW   9   7  92 W32G41    29.85R WCI -15
VALLEY CITY    LGT SNOW   7   7 100 W33G44    29.89R VSB 1   WCI -18
OAKES          NOT AVBL
GWINNER        CLOUDY    12   9  85 W23G39    29.91R WCI  -7
BUFFALO          N/A      9   5  84 N29         N/A  WCI -13
WYNDMERE         N/A     12   7  79 W22         N/A  WCI  -7
 ***** THE ABOVE OBSERVATIONS ARE NON NWS ARE NOT QUALITY
       CONTROLLED AND MAY MIS-REPORT RAIN FOR SNOW...
$$

  *****  WEATHER ACROSS NORTHERN MINNESOTA  *****

CITY           SKY/WX    TMP DP  RH WIND       PRES   REMARKS
FLAG ISLAND    CLOUDY    25  21  86 W13       29.48R WCI  13
WARROAD        LGT SNOW  25  21  86 W9        29.53R WCI  15
ROSEAU         LGT SNOW  23  19  86 W15G24    29.55R WCI  10
HALLOCK        LGT SNOW  19  18  93 NW33      29.66R WCI   0
THF RVR FALLS  LGT SNOW  16  12  86 W25G33    29.68R VSB 1   WCI  -3
HALSTAD          N/A     15  12  88 NW25        N/A  WCI  -4
FOSSTON        LGT SNOW  14  12  92 W23G30    29.70R WCI  -5
BAUDETTE       LGT SNOW  24  20  84 W13       29.50R FOG     WCI  12
WASKISH        LGT SNOW  25  21  86 W21G30    29.54R WCI  10
CROOKSTON      LGT SNOW  18  16  93 NW30G37   29.74R VSB 1   WCI  -2
$$
  *****  WEATHER ACROSS CENTRAL AND WEST MINNESOTA  *****

CITY           SKY/WX    TMP DP  RH WIND       PRES   REMARKS
BEMIDJI        LGT SNOW  17  13  88 W24G35    29.62R WCI  -2
PARK RAPIDS    LGT SNOW  15   8  73 W22G30    29.70R VSB 1   WCI  -3
WADENA         LGT SNOW  12   9  85 W20G25    29.76R WCI  -6
DETROIT LAKES  LGT SNOW  14  12  92 W23G36    29.76R VSB 1   WCI  -5
MOORHEAD       MIX PCPN  12   9  85 W28G33    29.84R WCI  -9
FERGUS FALLS   LGT SNOW  12   9  85 W23       29.91R WCI  -7
ELBOW LAKE     LGT SNOW  11   8  88 NW22G30   29.88R WCI  -8
MORRIS MN      CLOUDY    12   7  79 W23G33    29.89R WCI  -7
STAPLES        LGT SNOW  12   9  85 W21G26    29.76R WCI  -6
WHEATON        LGT SNOW  14  10  85 W20G26    29.94R WCI  -3
$$
  *****  WEATHER ELSEWHERE ACROSS MINNESOTA  *****

CITY           SKY/WX    TMP DP  RH WIND       PRES   REMARKS
DULUTH         LGT SNOW  19  14  81 W26       29.57R BLWGSNOWWCI   1
INTRNTL FALLS  LGT SNOW  20  17  88 S3        29.48R FOG
ELY            LGT SNOW  19  18  93 W9        29.48R WCI   9
CLOQUET        FLURRIES  19  12  73 SW15G24   29.61R WCI   5
BRAINERD       LGT SNOW  16  10  77 W23G29    29.72R WCI  -2
HIBBING        LGT SNOW  20  16  84 SW7G22    29.53R FOG     WCI  11
ALEXANDRIA     LGT SNOW  12   9  87 W26G33    29.83R FOG     WCI  -8
SAINT CLOUD    CLOUDY    16  10  77 W21G31    29.82R WCI  -1
MINNEAPOLIS    CLOUDY    18   9  68 W17G28    29.87R WCI   3
$$

  *****  WEATHER ACROSS SOUTH DAKOTA  *****

CITY           SKY/WX    TMP DP  RH WIND       PRES   REMARKS
SIOUX FALLS    CLEAR     11   5  77 W21       30.06R WCI  -8
BROOKINGS      CLEAR      8   2  76 W24G32    29.98R WCI -13
WATERTOWN      CLOUDY     8   3  80 W15G30    29.95R WCI  -9
HURON          CLEAR      8   1  73 W21G26    30.11R WCI -12
SISSETON         N/A     12   5  73 NW25G35   29.91S WCI  -8
ABERDEEN       CLOUDY    11   2  67 W17G26    30.03R WCI  -6
MITCHELL       CLEAR     10   3  73 W22       30.14S WCI -10
PIERRE         CLOUDY     9   2  73 NW23      30.14R WCI -11
MOBRIDGE       CLOUDY     9   0  67 NW25G32   30.05R WCI -12
RAPID CITY     CLOUDY     3  -4  72 N12       30.13R WCI -13
$$

  *****  SOME WEATHER IN NEARBY STATES *****

CITY           SKY/WX    TMP DP  RH WIND       PRES   REMARKS
GLASGOW MT     CLOUDY     3  -3  76 NW25      30.28R WCI -20
GREAT FALLS MT CLOUDY    -2  -8  76 W5        30.31R WCI -12
CHEYENNE WY    LGT SNOW   8   4  83 NE6       29.87R FOG     WCI  -2
SCOTTSBLUFF NE CLOUDY    16  -1  47 N9        30.04F WCI   4
OMAHA NE       CLOUDY    22  10  60 NW17      30.18R WCI   8
DES MOINES IA  PTCLDY    23  11  60 NW16      30.10S WCI  10
DAVENPORT IA   PTCLDY    26  18  71 W16       30.05R WCI  14
CHICAGO IL     PTCLDY    26  18  71 W15       29.99R WCI  14
EAU CLAIRE WI  FLURRIES  18  11  74 W16G30    29.83R WCI   3
LA CROSSE WI   CLOUDY    22  12  65 W14G22    29.93R WCI   9
$$

  *****  SOME NATIONAL WEATHER *****

CITY           SKY/WX    TMP DP  RH WIND       PRES   REMARKS
LA GUARDIA NY  CLOUDY    43  39  86 NE15      29.85S
RALEIGH NC     CLOUDY    44  41  89 VRB5      29.90R
ATLANTA GA     PTCLDY    51  46  83 NW10      29.97R
NEW ORLEANS LA CLOUDY    57  55  93 NE5       30.03R
OKLAHOMA CITY  PTCLDY    34  21  59 NE5       30.09F
ALBUQUERQUE NM PTCLDY    40  20  44 S10       29.88S
SALT LAKE CITY PTCLDY    26  19  74 NW12      29.98R WCI  16
LOS ANGELES CA MOCLDY    57  53  86 CALM      30.02R
BOISE ID       CLEAR     14  11  87 CALM      30.15R
SEATTLE WA     CLOUDY    34  28  79 NE5       30.34R
$$

*** WEATHER ACROSS MANITOBA...SASKATCHEWAN AND ONTARIO ***
                ***ONTARIO***

CITY           SKY/WX    TMP DP  RH WIND       PRES   REMARKS
GERALDTON      LGT SNOW  27  25  93 W9        29.45S WCI  17
THUNDER BAY    FLURRIES  25  21  86 W5        29.49S WCI  19
SIOUX LOOKOUT  FLURRIES  19  18  93 W5        29.44R WCI  13
TORONTO        CLOUDY    37  36  93 S3        29.74S
BIG TROUT LK   LGT SNOW  18  16  93 NE9G17    29.72S WCI   6
PICKLE LAKE    NOT AVBL
DRYDEN         LGT SNOW  19  19 100 SW5       29.45R WCI  13
KENORA         FLURRIES  23  21  93 W3        29.44R
$$
                *** MANITOBA***

CITY           SKY/WX    TMP DP  RH WIND       PRES   REMARKS
BRANDON        LGT SNOW  12   7  79 NW32G40   29.86R BLWGSNOWWCI -10
DAUPHIN        LGT SNOW  16  12  86 W13G18    29.91R WCI   2
ISLAND LAKE    NOT AVBL
PILOT MOUND      N/A     10   7  85 NW25G37     N/A  WCI -10
THE PAS        CLOUDY    18  14  86 NW16G22   30.06R WCI   3
THOMPSON       FLURRIES  12   9  85 N13G21    30.06R WCI  -3
WINNIPEG       LGT SNOW  23  21  93 NW28G35   29.63R BLWGSNOWWCI   6
LYNN LAKE      FLURRIES   3   1  92 N13       30.20R WCI -14
CHURCHILL      LGT SNOW  27  25  93 NE21      30.08R DRFTSNOWWCI  13
GILLAM         MOCLDY    12   9  85 N8        30.00R WCI   1
$$
                ***SASKATCHEWAN***

CITY           SKY/WX    TMP DP  RH WIND       PRES   REMARKS
ESTEVAN        LGT SNOW   3   0  85 NW26G36   30.11R BLWGSNOWWCI -20
KINDERSLEY     PTCLDY    -4  -9  77 NW15      30.32R WCI -25
LLOYDMINSTER   FLURRIES  -6  -9  84 NW14      30.36R WCI -26
PRINCE ALBERT  FLURRIES   5  -2  72 NW14G21   30.23R WCI -12
REGINA         MOCLDY     1  -4  78 NW22G28   30.19R WCI -21
YORKTON        CLOUDY     7   1  78 NW22G33   30.05R WCI -14
N. BATTLEFORD  FLURRIES  -2  -8  78 NW16      30.34R WCC1F1C2F2C3F3C4F4C5F5C6F6C7F7C8F8C9F9CaFaCbFbCcFcCdFdCe!



USA.gov is the U.S. government's official web portal to all federal, state and local government web resources and services.